When you browse on this site, cookies collect data to enhance your experience and personalize the content and advertising you see.
Visit our Privacy Policy to learn more. By continuing to use the site, you agree to this use of cookies and data.
  • In United Kingdom
  • List of Countries
  • For 7 days
  • Water Temperature
  • Satellite Maps
  • Weather Map
  • Weather Widgets
  • user-avatar
    Login

    Hourly Weather Wigston Magna

    Today, 20 May, Monday

    Time Temperature Precipitation Wind Pressure Humidity
    00:00 +8°C° 0 mm 2 mps 750 mmHg 93%
    01:00 +8°C° 0 mm 2 mps 750 mmHg 94%
    02:00 +8°C° 0 mm 2 mps 750 mmHg 94%
    03:00 +8°C° 0 mm 2 mps 750 mmHg 94%
    04:00 +8°C° 0 mm 2 mps 750 mmHg 93%
    05:00 +9°C° 0 mm 2 mps 751 mmHg 93%
    06:00 +10°C° 0 mm 2 mps 751 mmHg 92%
    07:00 +12°C° 0 mm 2 mps 751 mmHg 87%
    08:00 +14°C° 0 mm 2 mps 751 mmHg 82%
    09:00 +15°C° 0 mm 2 mps 751 mmHg 76%
    10:00 +16°C° 0 mm 3 mps 751 mmHg 72%
    11:00 +17°C° 0 mm 3 mps 751 mmHg 68%
    12:00 +18°C° 0 mm 2 mps 751 mmHg 65%
    13:00 +18°C° 0.1 mm 3 mps 751 mmHg 65%
    14:00 +18°C° 0.1 mm 3 mps 751 mmHg 66%
    15:00 +18°C° 0.1 mm 3 mps 751 mmHg 67%
    16:00 +18°C° 0.2 mm 3 mps 751 mmHg 72%
    17:00 +17°C° 0.2 mm 3 mps 752 mmHg 76%
    18:00 +16°C° 0.2 mm 3 mps 752 mmHg 81%
    19:00 +14°C° 0 mm 3 mps 752 mmHg 82%
    20:00 +12°C° 0 mm 3 mps 753 mmHg 84%
    21:00 +10°C° 0 mm 3 mps 753 mmHg 85%
    22:00 +9°C° 0 mm 3 mps 753 mmHg 86%
    23:00 +8°C° 0 mm 3 mps 753 mmHg 87%

    Tomorrow, 21 May, Tuesday

    Time Temperature Precipitation Wind Pressure Humidity
    00:00 +7°C° 0 mm 3 mps 753 mmHg 88%
    01:00 +7°C° 0 mm 3 mps 754 mmHg 90%
    02:00 +7°C° 0 mm 3 mps 754 mmHg 91%
    03:00 +5°C° 0 mm 3 mps 754 mmHg 93%
    04:00 +7°C° 0 mm 3 mps 754 mmHg 92%
    05:00 +8°C° 0 mm 3 mps 754 mmHg 92%
    06:00 +8°C° 0 mm 4 mps 754 mmHg 91%
    07:00 +10°C° 0 mm 4 mps 755 mmHg 86%
    08:00 +12°C° 0 mm 4 mps 755 mmHg 80%
    09:00 +14°C° 0 mm 4 mps 755 mmHg 75%
    10:00 +15°C° 0 mm 4 mps 755 mmHg 72%
    11:00 +17°C° 0 mm 4 mps 755 mmHg 68%
    12:00 +18°C° 0 mm 4 mps 755 mmHg 65%
    13:00 +18°C° 0 mm 4 mps 755 mmHg 63%
    14:00 +18°C° 0 mm 4 mps 755 mmHg 62%
    15:00 +17°C° 0 mm 5 mps 755 mmHg 61%
    16:00 +17°C° 0 mm 4 mps 755 mmHg 65%
    17:00 +17°C° 0 mm 4 mps 755 mmHg 68%
    18:00 +15°C° 0 mm 4 mps 755 mmHg 72%
    19:00 +13°C° 0 mm 3 mps 756 mmHg 70%
    20:00 +11°C° 0 mm 3 mps 756 mmHg 69%
    21:00 +9°C° 0 mm 3 mps 756 mmHg 68%
    22:00 +8°C° 0 mm 3 mps 756 mmHg 71%
    23:00 +7°C° 0 mm 2 mps 756 mmHg 74%

    Day after tomorrow, 22 May, Wednesday

    Time Temperature Precipitation Wind Pressure Humidity
    00:00 +6°C° 0 mm 2 mps 756 mmHg 77%
    01:00 +6°C° 0 mm 2 mps 756 mmHg 79%
    02:00 +6°C° 0 mm 2 mps 756 mmHg 81%
    03:00 +6°C° 0 mm 2 mps 756 mmHg 83%
    04:00 +7°C° 0 mm 2 mps 756 mmHg 83%
    05:00 +8°C° 0 mm 2 mps 756 mmHg 83%
    06:00 +9°C° 0 mm 2 mps 756 mmHg 82%
    07:00 +10°C° 0 mm 2 mps 757 mmHg 77%
    08:00 +13°C° 0 mm 2 mps 757 mmHg 72%
    09:00 +15°C° 0 mm 2 mps 757 mmHg 67%
    10:00 +15°C° 0 mm 2 mps 757 mmHg 65%
    11:00 +16°C° 0 mm 2 mps 757 mmHg 63%
    12:00 +17°C° 0 mm 2 mps 757 mmHg 61%
    13:00 +17°C° 0 mm 3 mps 756 mmHg 62%
    14:00 +17°C° 0 mm 3 mps 756 mmHg 63%
    15:00 +18°C° 0 mm 3 mps 756 mmHg 63%
    16:00 +18°C° 0 mm 3 mps 756 mmHg 68%
    17:00 +17°C° 0 mm 3 mps 755 mmHg 72%
    18:00 +17°C° 0 mm 2 mps 755 mmHg 76%
    19:00 +16°C° 0 mm 2 mps 755 mmHg 77%
    20:00 +14°C° 0 mm 2 mps 755 mmHg 79%
    21:00 +12°C° 0 mm 2 mps 755 mmHg 81%
    22:00 +10°C° 0 mm 2 mps 755 mmHg 81%
    23:00 +9°C° 0 mm 2 mps 755 mmHg 82%

    23 May, Thursday

    Time Temperature Precipitation Wind Pressure Humidity
    00:00 +9°C° 0 mm 2 mps 755 mmHg 83%
    01:00 +8°C° 0 mm 2 mps 755 mmHg 83%
    02:00 +7°C° 0 mm 2 mps 755 mmHg 82%
    03:00 +7°C° 0 mm 2 mps 755 mmHg 82%
    04:00 +8°C° 0 mm 2 mps 755 mmHg 82%
    05:00 +8°C° 0 mm 2 mps 755 mmHg 83%
    06:00 +9°C° 0 mm 2 mps 755 mmHg 83%
    07:00 +12°C° 0 mm 2 mps 755 mmHg 78%
    08:00 +13°C° 0 mm 3 mps 755 mmHg 72%
    09:00 +14°C° 0 mm 3 mps 755 mmHg 67%
    10:00 +16°C° 0 mm 3 mps 755 mmHg 65%
    11:00 +17°C° 0 mm 4 mps 754 mmHg 63%
    12:00 +18°C° 0 mm 4 mps 754 mmHg 62%
    13:00 +18°C° 0 mm 4 mps 754 mmHg 62%
    14:00 +19°C° 0 mm 4 mps 754 mmHg 63%
    15:00 +19°C° 0 mm 4 mps 754 mmHg 63%
    16:00 +18°C° 0 mm 4 mps 753 mmHg 69%
    17:00 +17°C° 0 mm 4 mps 753 mmHg 74%
    18:00 +17°C° 0 mm 4 mps 753 mmHg 80%
    19:00 +14°C° 0 mm 3 mps 753 mmHg 83%
    20:00 +13°C° 0 mm 3 mps 753 mmHg 86%
    21:00 +12°C° 0 mm 3 mps 753 mmHg 89%
    22:00 +11°C° 0 mm 3 mps 753 mmHg 90%
    23:00 +11°C° 0 mm 3 mps 753 mmHg 92%

    24 May, Friday

    Time Temperature Precipitation Wind Pressure Humidity
    00:00 +10°C° 0 mm 3 mps 753 mmHg 94%
    01:00 +10°C° 0 mm 3 mps 752 mmHg 95%
    02:00 +9°C° 0 mm 3 mps 752 mmHg 96%
    03:00 +9°C° 0 mm 3 mps 752 mmHg 96%
    04:00 +10°C° 0.5 mm 3 mps 752 mmHg 96%
    05:00 +10°C° 0.5 mm 3 mps 751 mmHg 96%
    06:00 +10°C° 0.5 mm 3 mps 751 mmHg 96%
    07:00 +11°C° 1 mm 3 mps 751 mmHg 95%
    08:00 +12°C° 1 mm 3 mps 751 mmHg 93%
    09:00 +12°C° 1 mm 3 mps 751 mmHg 91%
    10:00 +13°C° 0.5 mm 3 mps 751 mmHg 89%
    11:00 +14°C° 0.5 mm 4 mps 751 mmHg 86%
    12:00 +15°C° 0.5 mm 4 mps 751 mmHg 84%
    13:00 +15°C° 0.3 mm 5 mps 751 mmHg 80%
    14:00 +16°C° 0.3 mm 5 mps 751 mmHg 76%
    15:00 +17°C° 0.3 mm 5 mps 751 mmHg 73%
    16:00 +17°C° 0.1 mm 5 mps 751 mmHg 75%
    17:00 +16°C° 0.1 mm 5 mps 752 mmHg 77%
    18:00 +15°C° 0.1 mm 5 mps 752 mmHg 79%
    19:00 +14°C° 0 mm 4 mps 752 mmHg 83%
    20:00 +12°C° 0 mm 4 mps 753 mmHg 86%
    21:00 +10°C° 0 mm 3 mps 753 mmHg 90%
    22:00 +10°C° 0 mm 3 mps 753 mmHg 91%
    23:00 +9°C° 0 mm 3 mps 753 mmHg 92%

    25 May, Saturday

    Time Temperature Precipitation Wind Pressure Humidity
    00:00 +9°C° 0 mm 2 mps 754 mmHg 93%
    01:00 +9°C° 0 mm 2 mps 754 mmHg 93%
    02:00 +9°C° 0 mm 2 mps 753 mmHg 94%
    03:00 +9°C° 0 mm 2 mps 753 mmHg 94%
    04:00 +10°C° 0 mm 2 mps 753 mmHg 93%
    05:00 +12°C° 0 mm 2 mps 753 mmHg 92%
    06:00 +12°C° 0 mm 2 mps 753 mmHg 91%
    07:00 +13°C° 0.1 mm 2 mps 753 mmHg 91%
    08:00 +13°C° 0.1 mm 3 mps 753 mmHg 91%
    09:00 +13°C° 0.1 mm 3 mps 753 mmHg 91%
    10:00 +14°C° 0.1 mm 3 mps 753 mmHg 92%
    11:00 +14°C° 0.1 mm 3 mps 753 mmHg 93%
    12:00 +15°C° 0.1 mm 2 mps 753 mmHg 93%
    13:00 +16°C° 0 mm 2 mps 753 mmHg 89%
    14:00 +17°C° 0 mm 2 mps 753 mmHg 85%
    15:00 +18°C° 0 mm 2 mps 753 mmHg 81%
    16:00 +18°C° 0.2 mm 3 mps 753 mmHg 83%
    17:00 +18°C° 0.2 mm 3 mps 753 mmHg 84%
    18:00 +18°C° 0.2 mm 3 mps 753 mmHg 85%
    19:00 +16°C° 0.1 mm 3 mps 753 mmHg 87%
    20:00 +14°C° 0.1 mm 3 mps 753 mmHg 89%
    21:00 +12°C° 0.1 mm 3 mps 754 mmHg 91%
    22:00 +11°C° 0 mm 3 mps 754 mmHg 91%
    23:00 +10°C° 0 mm 2 mps 754 mmHg 91%
    Show more